Weather History for Buffalo, WY

Change the Weather History Date:

Thursday, October 18, 2012

  Actual Average Record
Temperature  
Mean Temperature 43 °F 45 °F  
Max Temperature 51 °F 57 °F 79 °F (2003)
Min Temperature 30 °F 34 °F 17 °F (2006)
Degree Days  
Heating Degree Days 22 20  
Month to date heating degree days 308  
Since 1 July heating degree days 622  
Cooling Degree Days 0 0  
Month to date cooling degree days 0  
Year to date cooling degree days 491  
Moisture  
Dew Point 16 °F    
Average Humidity 39    
Maximum Humidity 57    
Minimum Humidity 26    
Precipitation  
Precipitation 0.00 in 0.03 in 0.02 in (2001)
Month to date precipitation 0.70  
Year to date precipitation 12.28  
Sea Level Pressure  
Sea Level Pressure 30.13 in    
Wind  
Wind Speed 25 mph (NNW)    
Max Wind Speed 34 mph    
Max Gust Speed 47 mph    
Visibility 10 miles    
Events Snow    
T = Trace of Precipitation, MM = Missing Value Source: NWS Daily Summary

Daily Weather History Graph

Daily Weather History Graph

Search for Another Location

Airport:

Trip Planner

Search our weather history database for the weather conditions in past years. The results will help you decide how hot, cold, wet, or windy it might be!

Date:

Astronomy

Oct. 18, 2012 Rise Set
Actual Time 7:26 AM MDT 6:16 PM MDT
Civil Twilight 6:56 AM MDT 6:46 PM MDT
Nautical Twilight 6:23 AM MDT 7:19 PM MDT
Astronomical Twilight 5:49 AM MDT 7:53 PM MDT
Moon 11:19 AM MDT (10/18) 8:45 PM MDT (10/18)
Length of Visible Light 11h 49m
Length of Day
10h 50m
Waxing Crescent, 15% of the Moon is Illuminated
Oct 18
Waxing Crescent
Oct 21
First Quarter
Oct 29
Full
Nov 6
Last Quarter
Nov 13
New

Hourly Weather History & Observations

Time (MDT) Temp. Windchill Dew Point Humidity Pressure Visibility Wind Dir Wind Speed Gust Speed Precip Events Conditions
12:53 AM 37.9 °F 24.9 °F 14.0 °F 38% 30.06 in 10.0 mi NNW 34.5 mph 44.9 mph N/A   Mostly Cloudy
1:53 AM 37.9 °F 25.3 °F 14.0 °F 38% 30.08 in 10.0 mi NW 32.2 mph 41.4 mph N/A   Partly Cloudy
2:53 AM 37.9 °F 25.7 °F 12.9 °F 36% 30.09 in 10.0 mi NNW 29.9 mph 47.2 mph N/A   Partly Cloudy
3:53 AM 37.9 °F 25.5 °F 12.9 °F 36% 30.10 in 10.0 mi NW 31.1 mph 43.7 mph 0.00 in Snow Light Snow
4:53 AM 37.0 °F 25.4 °F 12.9 °F 37% 30.12 in 10.0 mi NW 25.3 mph 40.3 mph 0.00 in   Clear
5:53 AM 36.0 °F 23.9 °F 14.0 °F 41% 30.14 in 10.0 mi NNW 25.3 mph 39.1 mph N/A   Clear
6:53 AM 35.1 °F 23.3 °F 15.1 °F 44% 30.16 in 10.0 mi NW 23.0 mph 34.5 mph N/A   Clear
7:53 AM 35.1 °F 23.3 °F 15.1 °F 44% 30.15 in 10.0 mi NNW 23.0 mph 35.7 mph N/A   Clear
8:53 AM 37.0 °F 24.9 °F 16.0 °F 42% 30.16 in 10.0 mi NNW 27.6 mph 39.1 mph N/A   Clear
9:53 AM 39.9 °F 27.8 °F 18.0 °F 41% 30.17 in 10.0 mi North 33.4 mph 40.3 mph N/A   Clear
10:53 AM 42.1 °F 31.3 °F 16.0 °F 35% 30.14 in 10.0 mi NNW 29.9 mph 46.0 mph N/A   Clear
11:53 AM 45.0 °F 35.8 °F 17.1 °F 33% 30.14 in 10.0 mi North 26.5 mph 46.0 mph N/A   Clear
1:53 PM 48.0 °F - 17.1 °F 29% 30.13 in 10.0 mi NNW 23.0 mph 28.8 mph N/A   Clear
2:53 PM 51.1 °F - 17.1 °F 26% 30.10 in 10.0 mi NNW 19.6 mph 28.8 mph N/A   Clear
3:53 PM 50.0 °F - 16.0 °F 26% 30.11 in 10.0 mi NNW 19.6 mph 25.3 mph N/A   Clear
4:53 PM 48.9 °F - 17.1 °F 28% 30.12 in 10.0 mi NNW 16.1 mph 26.5 mph N/A   Clear
5:53 PM 46.0 °F 41.4 °F 17.1 °F 31% 30.13 in 10.0 mi NNW 9.2 mph - N/A   Clear
6:53 PM 39.9 °F 35.1 °F 18.0 °F 41% 30.15 in 10.0 mi WNW 6.9 mph - N/A   Clear
8:53 PM 35.1 °F - 19.0 °F 52% 30.16 in 10.0 mi Calm Calm - N/A   Clear
9:53 PM 37.0 °F 34.5 °F 18.0 °F 46% 30.14 in 10.0 mi SSW 3.5 mph - N/A   Clear
10:53 PM 35.1 °F - 17.1 °F 48% 30.11 in 10.0 mi Calm Calm - N/A   Clear
11:53 PM 30.9 °F 26.2 °F 17.1 °F 57% 30.11 in 10.0 mi Variable 4.6 mph - N/A   Clear